Weather History for Steamboat Springs, CO

Change the Weather History Date:

Thursday, February 27, 2014

  Actual Average Record
Temperature  
Mean Temperature 30 °F -  
Max Temperature 39 °F 37 °F 49 °F (1932)
Min Temperature 21 °F 9 °F -25 °F (1909)
Degree Days  
Heating Degree Days 35    
Moisture  
Dew Point 25 °F    
Average Humidity 80    
Maximum Humidity 100    
Minimum Humidity 53    
Precipitation  
Precipitation 0.00 in - - ()
Sea Level Pressure  
Sea Level Pressure 29.76 in    
Wind  
Wind Speed 1 mph (ESE)    
Max Wind Speed 9 mph    
Max Gust Speed -    
Visibility 8 miles    
Events      
Averages and records for this station are not official NWS values.
T = Trace of Precipitation, MM = Missing Value Source: NWS Daily Summary

Daily Weather History Graph

Daily Weather History Graph

Search for Another Location

Airport:

Trip Planner

Search our weather history database for the weather conditions in past years. The results will help you decide how hot, cold, wet, or windy it might be!

Date:

Astronomy

Feb. 27, 2014 Rise Set
Actual Time 6:44 AM MST 5:56 PM MST
Civil Twilight 6:16 AM MST 6:24 PM MST
Nautical Twilight 5:45 AM MST 6:55 PM MST
Astronomical Twilight 5:13 AM MST 7:27 PM MST
Moon 5:18 AM MST (2/27) 4:25 PM MST (2/27)
Length of Visible Light 12h 07m
Length of Day
11h 12m
Waning Crescent, 4% of the Moon is Illuminated
Feb 27
Waning Crescent
Mar 1
New
Mar 8
First Quarter
Mar 16
Full
Mar 23
Last Quarter

Hourly Weather History & Observations

Time (MST) Temp. Windchill Dew Point Humidity Pressure Visibility Wind Dir Wind Speed Gust Speed Precip Events Conditions
12:15 AM 27.5 °F - 19.6 °F 72% 29.95 in 10.0 mi Calm Calm - N/A   Overcast
12:35 AM 27.3 °F - 19.9 °F 74% 29.94 in 10.0 mi Calm Calm - N/A   Overcast
12:55 AM 26.6 °F - 19.0 °F 73% 29.94 in 10.0 mi Calm Calm - N/A   Overcast
1:15 AM 27.1 °F - 18.9 °F 71% 29.94 in 10.0 mi Calm Calm - N/A   Scattered Clouds
1:35 AM 26.6 °F - 18.5 °F 71% 29.93 in 10.0 mi Calm Calm - N/A   Mostly Cloudy
1:55 AM 25.9 °F - 18.9 °F 75% 29.92 in 10.0 mi Calm Calm - N/A   Overcast
2:15 AM 26.1 °F - 19.4 °F 76% 29.92 in 10.0 mi Calm Calm - N/A   Overcast
2:35 AM 25.7 °F - 18.5 °F 74% 29.91 in 10.0 mi Calm Calm - N/A   Overcast
2:55 AM 24.8 °F - 19.8 °F 81% 29.90 in 10.0 mi Calm Calm - N/A   Overcast
3:15 AM 26.6 °F - 19.2 °F 74% 29.89 in 10.0 mi Calm Calm - N/A   Overcast
3:35 AM 25.2 °F - 19.2 °F 78% 29.89 in 10.0 mi Calm Calm - N/A   Overcast
3:55 AM 25.2 °F - 19.0 °F 78% 29.88 in 10.0 mi Calm Calm - N/A   Scattered Clouds
4:15 AM 24.8 °F - 18.5 °F 77% 29.88 in 10.0 mi Calm Calm - N/A   Mostly Cloudy
4:35 AM 24.1 °F - 18.5 °F 79% 29.90 in 10.0 mi Calm Calm - N/A   Scattered Clouds
4:55 AM 24.3 °F 18.4 °F 19.4 °F 82% 29.88 in 10.0 mi North 4.6 mph - N/A   Scattered Clouds
5:15 AM 24.8 °F 15.3 °F 19.6 °F 81% 29.86 in 10.0 mi East 9.2 mph - N/A   Scattered Clouds
5:35 AM 25.7 °F 17.1 °F 19.6 °F 78% 29.86 in 10.0 mi SE 8.1 mph - N/A   Scattered Clouds
5:55 AM 23.9 °F - 18.5 °F 80% 29.86 in 10.0 mi Calm Calm - N/A   Clear
6:15 AM 23.9 °F - 17.8 °F 77% 29.85 in 10.0 mi Calm Calm - N/A   Clear
6:35 AM 24.1 °F - 17.4 °F 76% 29.85 in 10.0 mi Calm Calm - N/A   Clear
6:55 AM 21.9 °F - 16.5 °F 80% 29.84 in 10.0 mi Calm Calm - N/A   Clear
7:15 AM 23.0 °F - 17.2 °F 79% 29.84 in 10.0 mi Calm Calm - N/A   Clear
7:35 AM 24.6 °F - 18.7 °F 78% 29.84 in 10.0 mi Calm Calm - N/A   Clear
7:55 AM 25.7 °F - 18.5 °F 74% 29.84 in 10.0 mi Calm Calm - N/A   Clear
8:15 AM 27.1 °F - 18.7 °F 70% 29.83 in 10.0 mi Calm Calm - N/A   Clear
8:35 AM 28.4 °F - 19.0 °F 68% 29.83 in 10.0 mi Calm Calm - N/A   Mostly Cloudy
8:55 AM 28.8 °F - 18.7 °F 66% 29.82 in 10.0 mi Calm Calm - N/A   Scattered Clouds
9:15 AM 28.2 °F - 18.9 °F 68% 29.82 in 10.0 mi Calm Calm - N/A   Clear
9:35 AM 30.2 °F - 19.0 °F 63% 29.81 in 10.0 mi Calm Calm - N/A   Clear
9:55 AM 30.7 °F - 19.6 °F 63% 29.80 in 10.0 mi Calm Calm - N/A   Clear
10:15 AM 32.2 °F - 20.5 °F 62% 29.79 in 10.0 mi Calm Calm - N/A   Mostly Cloudy
10:35 AM 33.8 °F - 21.0 °F 60% 29.78 in 10.0 mi Calm Calm - N/A   Overcast
10:55 AM 35.4 °F - 21.2 °F 56% 29.77 in 10.0 mi Calm Calm - N/A   Overcast
11:15 AM 35.6 °F - 21.6 °F 57% 29.76 in 10.0 mi Calm Calm - N/A   Overcast
11:35 AM 38.5 °F - 22.5 °F 53% 29.76 in 10.0 mi Calm Calm - N/A   Mostly Cloudy
11:55 AM 34.9 °F 30.8 °F 23.0 °F 62% 29.76 in 10.0 mi WSW 4.6 mph - N/A   Mostly Cloudy
12:15 PM 36.7 °F 34.1 °F 24.4 °F 61% 29.75 in 10.0 mi North 3.5 mph - N/A   Overcast
12:35 PM 38.5 °F - 24.6 °F 58% 29.74 in 10.0 mi Calm Calm - N/A   Overcast
12:55 PM 39.6 °F - 24.4 °F 55% 29.73 in 10.0 mi Calm Calm - N/A   Overcast
1:15 PM 37.4 °F 31.4 °F 30.0 °F 75% 29.73 in 10.0 mi NW 8.1 mph - N/A   Overcast
1:35 PM 35.1 °F 32.2 °F 32.2 °F 89% 29.72 in 4.0 mi North 3.5 mph - N/A   Overcast
1:55 PM 36.9 °F 33.1 °F 33.1 °F 86% 29.70 in 5.0 mi NNE 4.6 mph - N/A   Overcast
2:15 PM 37.0 °F 34.5 °F 32.4 °F 83% 29.70 in 10.0 mi ENE 3.5 mph - N/A   Overcast
2:35 PM 38.5 °F 34.1 °F 31.5 °F 76% 29.68 in 10.0 mi ESE 5.8 mph - N/A   Overcast
2:55 PM 38.3 °F 35.9 °F 32.0 °F 78% 29.67 in 10.0 mi ESE 3.5 mph - N/A   Mostly Cloudy
3:15 PM 38.3 °F 33.9 °F 31.3 °F 76% 29.66 in 10.0 mi SE 5.8 mph - N/A   Mostly Cloudy
3:35 PM 38.7 °F - 30.4 °F 72% 29.66 in 10.0 mi Calm Calm - N/A   Overcast
3:55 PM 37.0 °F - 30.9 °F 79% 29.66 in 7.0 mi Calm Calm - N/A   Overcast
4:15 PM 36.7 °F - 31.1 °F 80% 29.65 in 10.0 mi Calm Calm - N/A   Overcast
4:35 PM 36.7 °F - 31.1 °F 80% 29.64 in 10.0 mi Calm Calm - N/A   Overcast
4:55 PM 35.8 °F 31.9 °F 31.1 °F 83% 29.64 in 10.0 mi ESE 4.6 mph - N/A   Overcast
5:15 PM 34.7 °F 31.8 °F 32.0 °F 90% 29.64 in 7.0 mi South 3.5 mph - N/A   Overcast
5:35 PM 33.8 °F - 32.2 °F 94% 29.64 in 5.0 mi Calm Calm - N/A   Overcast
5:55 PM 33.4 °F - 32.2 °F 95% 29.64 in 5.0 mi Calm Calm - N/A   Overcast
6:15 PM 33.1 °F - 32.2 °F 96% 29.64 in 5.0 mi Calm Calm - N/A   Overcast
6:35 PM 32.9 °F - 32.2 °F 97% 29.64 in 3.0 mi Calm Calm - N/A   Overcast
6:55 PM 32.4 °F - 32.0 °F 99% 29.65 in 1.8 mi Calm Calm - N/A   Overcast
7:15 PM 32.2 °F - 32.0 °F 99% 29.65 in 1.8 mi Calm Calm - N/A   Overcast
7:35 PM 32.2 °F - 32.0 °F 99% 29.64 in 1.8 mi Calm Calm - N/A   Overcast
7:55 PM 32.4 °F - 32.2 °F 99% 29.64 in 2.5 mi Calm Calm - N/A   Overcast
8:15 PM 32.2 °F - 32.0 °F 99% 29.64 in 2.0 mi Calm Calm - N/A   Overcast
8:35 PM 32.4 °F - 32.2 °F 99% 29.64 in 1.2 mi Calm Calm - N/A   Overcast
8:55 PM 32.5 °F - 32.4 °F 99% 29.65 in 10.0 mi Calm Calm - N/A   Overcast
9:15 PM 32.9 °F - 32.5 °F 99% 29.65 in 7.0 mi Calm Calm - N/A   Overcast
9:35 PM 32.4 °F - 32.2 °F 99% 29.66 in 2.5 mi Calm Calm - N/A   Overcast
9:55 PM 32.4 °F - 32.2 °F 99% 29.66 in 2.0 mi Calm Calm - N/A   Overcast
10:15 PM 32.4 °F 29.1 °F 32.2 °F 99% 29.66 in 2.0 mi SSW 3.5 mph - N/A   Overcast
10:35 PM 32.0 °F 28.7 °F 32.0 °F 100% 29.68 in 0.5 mi SSW 3.5 mph - N/A   Overcast
10:55 PM 32.5 °F - 32.4 °F 99% 29.68 in 4.0 mi Calm Calm - N/A   Overcast
11:15 PM 32.5 °F - 32.5 °F 100% 29.69 in 3.0 mi Calm Calm - N/A   Overcast
11:35 PM 32.7 °F - 32.5 °F 99% 29.70 in 5.0 mi Calm Calm - N/A   Overcast
11:55 PM 32.7 °F 29.6 °F 32.4 °F 99% 29.70 in 4.0 mi East 3.5 mph - N/A   Overcast